Find Bayi 04

NORAD ID: 100469 Int'l Des: NNA 2026-195 Owner: HARB Country: CN operational
又名: OBJECT E spacetrack BY70-4 celestrak

当前视图

正在加载3D地球...

About Bayi 04

Bayi 04 (NORAD 100469) is a satellite launched Aug 25, 2026 by HARB of CN. with a mass of 19.00 kg.

即将过境

Passes for default location (London). Set your location on the main map for personalized predictions.

高度历史

Loading altitude history...

两行轨道根数

1 A0469U 26195E 26264.16048910 .00003117 00000-0 19632-3 0 9997
2 A0469 97.5345 337.5127 0012611 173.4853 186.6542 15.09831220 4089
Epoch: Sep 21, 2026 • Age: 12 hours

当前状态

高度 562.6 km
远地点 / 近地点 N/A
速度 7.58 km/s
星下点 -73.31°S, 110.22°W
发射日期 Aug 25, 2026
运行时间 27 days
类型 scientific

技术详情

分类 Payload
质量 19.00 kg
干质量 19.00 kg
总质量 19.00 kg
长度 0.20 m
直径 0.30 m
跨度 1.00 m
形状 Box + 2 pan
制造商 HARB
平台类型 BY04
阶段状态 In Orbit
所有者/国家 HARB/CN

Most Searched